owner,sensor,date,latitude,longitude,vertical_datum,sea_water_practical_salinity,qcFlag 
SCCF RECON,ioos:station:SCCF:12:1,2010-02-01T00:00:00Z,26.4966,-82.1479,1.955,32.35,1111122 
SCCF RECON,ioos:station:SCCF:12:1,2010-02-01T01:00:00Z,26.4966,-82.1479,1.911,32.34,1111122 
SCCF RECON,ioos:station:SCCF:12:1,2010-02-01T02:00:00Z,26.4966,-82.1479,1.946,32.37,1111122 
SCCF RECON,ioos:station:SCCF:12:1,2010-02-01T03:00:00Z,26.4966,-82.1479,2.078,32.43,1111122 
SCCF RECON,ioos:station:SCCF:12:1,2010-02-01T04:00:00Z,26.4966,-82.1479,2.266,32.41,1111122 
SCCF RECON,ioos:station:SCCF:12:1,2010-02-01T05:00:00Z,26.4966,-82.1479,2.409,32.36,1111122 
SCCF RECON,ioos:station:SCCF:12:1,2010-02-01T06:00:00Z,26.4966,-82.1479,2.505,32.3,1111122 
SCCF RECON,ioos:station:SCCF:12:1,2010-02-01T07:00:00Z,26.4966,-82.1479,2.555,32.33,1111122 
SCCF RECON,ioos:station:SCCF:12:1,2010-02-01T08:00:00Z,26.4966,-82.1479,2.512,32.5,1111122 
SCCF RECON,ioos:station:SCCF:12:1,2010-02-01T09:00:00Z,26.4966,-82.1479,2.397,32.62,1111122 
SCCF RECON,ioos:station:SCCF:12:1,2010-02-01T10:00:00Z,26.4966,-82.1479,2.251,32.53,1111122 
SCCF RECON,ioos:station:SCCF:12:1,2010-02-01T11:00:00Z,26.4966,-82.1479,2.107,32.54,1111122 
SCCF RECON,ioos:station:SCCF:12:1,2010-02-01T12:00:00Z,26.4966,-82.1479,2.0,32.59,1111122 
SCCF RECON,ioos:station:SCCF:12:1,2010-02-01T13:00:00Z,26.4966,-82.1479,1.887,32.65,1111122 
SCCF RECON,ioos:station:SCCF:12:1,2010-02-01T14:00:00Z,26.4966,-82.1479,1.811,32.74,1111122 
SCCF RECON,ioos:station:SCCF:12:1,2010-02-01T15:00:00Z,26.4966,-82.1479,1.84,32.76,1111122 
SCCF RECON,ioos:station:SCCF:12:1,2010-02-01T16:00:00Z,26.4966,-82.1479,2.018,32.55,1111122 
SCCF RECON,ioos:station:SCCF:12:1,2010-02-01T17:00:00Z,26.4966,-82.1479,2.183,32.51,1111122 
SCCF RECON,ioos:station:SCCF:12:1,2010-02-01T18:00:00Z,26.4966,-82.1479,2.319,32.62,1111122 
SCCF RECON,ioos:station:SCCF:12:1,2010-02-01T19:00:00Z,26.4966,-82.1479,2.4,32.72,1111122 
SCCF RECON,ioos:station:SCCF:12:1,2010-02-01T20:00:00Z,26.4966,-82.1479,2.42,32.78,1111122 
SCCF RECON,ioos:station:SCCF:12:1,2010-02-01T21:00:00Z,26.4966,-82.1479,2.378,32.57,1111122 
SCCF RECON,ioos:station:SCCF:12:1,2010-02-01T22:00:00Z,26.4966,-82.1479,2.29,32.52,1111122 
SCCF RECON,ioos:station:SCCF:12:1,2010-02-01T23:00:00Z,26.4966,-82.1479,2.18,32.52,1111122 
SCCF RECON,ioos:station:SCCF:12:1,2010-02-02T00:00:00Z,26.4966,-82.1479,2.07,32.51,1111122 
SCCF RECON,ioos:station:SCCF:12:1,2010-02-02T01:00:00Z,26.4966,-82.1479,1.993,32.51,1111122 
SCCF RECON,ioos:station:SCCF:12:1,2010-02-02T02:00:00Z,26.4966,-82.1479,1.961,32.52,1111122 
SCCF RECON,ioos:station:SCCF:12:1,2010-02-02T03:00:00Z,26.4966,-82.1479,2.023,32.6,1111122 
SCCF RECON,ioos:station:SCCF:12:1,2010-02-02T04:00:00Z,26.4966,-82.1479,2.18,32.6,1111122 
SCCF RECON,ioos:station:SCCF:12:1,2010-02-02T05:00:00Z,26.4966,-82.1479,2.36,32.61,1111122 
SCCF RECON,ioos:station:SCCF:12:1,2010-02-02T06:00:00Z,26.4966,-82.1479,2.46,32.54,1111122 
SCCF RECON,ioos:station:SCCF:12:1,2010-02-02T07:00:00Z,26.4966,-82.1479,2.51,32.52,1111122 
SCCF RECON,ioos:station:SCCF:12:1,2010-02-02T08:00:00Z,26.4966,-82.1479,2.5,32.59,1111122 
SCCF RECON,ioos:station:SCCF:12:1,2010-02-02T09:00:00Z,26.4966,-82.1479,2.43,32.56,1111122 
SCCF RECON,ioos:station:SCCF:12:1,2010-02-02T10:00:00Z,26.4966,-82.1479,2.33,32.44,1111122 
SCCF RECON,ioos:station:SCCF:12:1,2010-02-02T11:00:00Z,26.4966,-82.1479,2.21,32.38,1111122 
SCCF RECON,ioos:station:SCCF:12:1,2010-02-02T12:00:00Z,26.4966,-82.1479,2.1,32.38,1111122 
SCCF RECON,ioos:station:SCCF:12:1,2010-02-02T13:00:00Z,26.4966,-82.1479,2.0,32.37,1111122 
SCCF RECON,ioos:station:SCCF:12:1,2010-02-02T14:00:00Z,26.4966,-82.1479,1.91,32.39,1111122 
SCCF RECON,ioos:station:SCCF:12:1,2010-02-02T15:00:00Z,26.4966,-82.1479,1.9,32.43,1111122 
SCCF RECON,ioos:station:SCCF:12:1,2010-02-02T16:00:00Z,26.4966,-82.1479,2.003,32.47,1111122 
SCCF RECON,ioos:station:SCCF:12:1,2010-02-02T17:00:00Z,26.4966,-82.1479,2.21,32.53,1111122 
SCCF RECON,ioos:station:SCCF:12:1,2010-02-02T18:00:00Z,26.4966,-82.1479,2.38,32.53,1111122 
SCCF RECON,ioos:station:SCCF:12:1,2010-02-02T19:00:00Z,26.4966,-82.1479,2.527,32.51,1111122 
SCCF RECON,ioos:station:SCCF:12:1,2010-02-02T20:00:00Z,26.4966,-82.1479,2.493,32.3,1111122 
SCCF RECON,ioos:station:SCCF:12:1,2010-02-02T21:00:00Z,26.4966,-82.1479,2.49,32.27,1111122 
SCCF RECON,ioos:station:SCCF:12:1,2010-02-02T22:00:00Z,26.4966,-82.1479,2.46,32.15,1111122 
SCCF RECON,ioos:station:SCCF:12:1,2010-02-02T23:00:00Z,26.4966,-82.1479,2.374,32.07,1111122 
SCCF RECON,ioos:station:SCCF:12:1,2010-02-03T00:00:00Z,26.4966,-82.1479,2.228,32.09,1111122 
SCCF RECON,ioos:station:SCCF:12:1,2010-02-03T01:00:00Z,26.4966,-82.1479,2.1,32.11,1111122 
SCCF RECON,ioos:station:SCCF:12:1,2010-02-03T02:00:00Z,26.4966,-82.1479,2.004,32.1,1111122 
SCCF RECON,ioos:station:SCCF:12:1,2010-02-03T03:00:00Z,26.4966,-82.1479,1.965,32.09,1111122 
SCCF RECON,ioos:station:SCCF:12:1,2010-02-03T04:00:00Z,26.4966,-82.1479,1.996,32.1,1111122 
SCCF RECON,ioos:station:SCCF:12:1,2010-02-03T05:00:00Z,26.4966,-82.1479,2.126,32.15,1111122 
SCCF RECON,ioos:station:SCCF:12:1,2010-02-03T06:00:00Z,26.4966,-82.1479,2.264,32.1,1111122 
SCCF RECON,ioos:station:SCCF:12:1,2010-02-03T07:00:00Z,26.4966,-82.1479,2.353,32.06,1111122 
SCCF RECON,ioos:station:SCCF:12:1,2010-02-03T08:00:00Z,26.4966,-82.1479,2.389,32.05,1111122 
SCCF RECON,ioos:station:SCCF:12:1,2010-02-03T09:00:00Z,26.4966,-82.1479,2.362,32.04,1111122 
SCCF RECON,ioos:station:SCCF:12:1,2010-02-03T10:00:00Z,26.4966,-82.1479,2.314,32.02,1111122 
SCCF RECON,ioos:station:SCCF:12:1,2010-02-03T11:00:00Z,26.4966,-82.1479,2.244,32.01,1111122 
SCCF RECON,ioos:station:SCCF:12:1,2010-02-03T12:00:00Z,26.4966,-82.1479,2.131,32.05,1111122 
SCCF RECON,ioos:station:SCCF:12:1,2010-02-03T13:00:00Z,26.4966,-82.1479,2.033,32.09,1111122 
SCCF RECON,ioos:station:SCCF:12:1,2010-02-03T14:00:00Z,26.4966,-82.1479,1.955,32.12,1111122 
SCCF RECON,ioos:station:SCCF:12:1,2010-02-03T15:00:00Z,26.4966,-82.1479,1.903,32.11,1111122 
SCCF RECON,ioos:station:SCCF:12:1,2010-02-03T16:00:00Z,26.4966,-82.1479,1.931,32.13,1111122 
SCCF RECON,ioos:station:SCCF:12:1,2010-02-03T17:00:00Z,26.4966,-82.1479,2.069,32.06,1111122 
SCCF RECON,ioos:station:SCCF:12:1,2010-02-03T18:00:00Z,26.4966,-82.1479,2.221,32.05,1111122 
SCCF RECON,ioos:station:SCCF:12:1,2010-02-03T19:00:00Z,26.4966,-82.1479,2.341,31.99,1111122 
SCCF RECON,ioos:station:SCCF:12:1,2010-02-03T20:00:00Z,26.4966,-82.1479,2.4,32.07,1111122 
SCCF RECON,ioos:station:SCCF:12:1,2010-02-03T21:00:00Z,26.4966,-82.1479,2.43,32.13,1111122 
SCCF RECON,ioos:station:SCCF:12:1,2010-02-03T22:00:00Z,26.4966,-82.1479,2.42,32.16,1111122 
SCCF RECON,ioos:station:SCCF:12:1,2010-02-03T23:00:00Z,26.4966,-82.1479,2.342,32.14,1111122 
SCCF RECON,ioos:station:SCCF:12:1,2010-02-04T00:00:00Z,26.4966,-82.1479,2.246,32.12,1111122 
SCCF RECON,ioos:station:SCCF:12:1,2010-02-04T01:00:00Z,26.4966,-82.1479,2.134,32.11,1111122 
SCCF RECON,ioos:station:SCCF:12:1,2010-02-04T02:00:00Z,26.4966,-82.1479,2.018,32.12,1111122 
SCCF RECON,ioos:station:SCCF:12:1,2010-02-04T03:00:00Z,26.4966,-82.1479,1.92,32.14,1111122 
SCCF RECON,ioos:station:SCCF:12:1,2010-02-04T04:00:00Z,26.4966,-82.1479,1.869,32.14,1111122 
SCCF RECON,ioos:station:SCCF:12:1,2010-02-04T05:00:00Z,26.4966,-82.1479,1.907,32.16,1111122 
SCCF RECON,ioos:station:SCCF:12:1,2010-02-04T06:00:00Z,26.4966,-82.1479,2.03,32.16,1111122 
SCCF RECON,ioos:station:SCCF:12:1,2010-02-04T07:00:00Z,26.4966,-82.1479,2.14,32.14,1111122 
SCCF RECON,ioos:station:SCCF:12:1,2010-02-04T08:00:00Z,26.4966,-82.1479,2.21,32.12,1111122 
SCCF RECON,ioos:station:SCCF:12:1,2010-02-04T09:00:00Z,26.4966,-82.1479,2.218,32.14,1111122 
SCCF RECON,ioos:station:SCCF:12:1,2010-02-04T10:00:00Z,26.4966,-82.1479,2.2,32.18,1111122 
SCCF RECON,ioos:station:SCCF:12:1,2010-02-04T11:00:00Z,26.4966,-82.1479,2.199,32.17,1111122 
SCCF RECON,ioos:station:SCCF:12:1,2010-02-04T12:00:00Z,26.4966,-82.1479,2.17,32.18,1111122 
SCCF RECON,ioos:station:SCCF:12:1,2010-02-04T13:00:00Z,26.4966,-82.1479,2.12,32.12,1111122 
SCCF RECON,ioos:station:SCCF:12:1,2010-02-04T14:00:00Z,26.4966,-82.1479,2.07,32.09,1111122 
SCCF RECON,ioos:station:SCCF:12:1,2010-02-04T15:00:00Z,26.4966,-82.1479,2.04,32.07,1111122 
SCCF RECON,ioos:station:SCCF:12:1,2010-02-04T16:00:00Z,26.4966,-82.1479,2.03,32.07,1111122 
SCCF RECON,ioos:station:SCCF:12:1,2010-02-04T17:00:00Z,26.4966,-82.1479,2.1,32.14,1111122 
SCCF RECON,ioos:station:SCCF:12:1,2010-02-04T18:00:00Z,26.4966,-82.1479,2.27,32.17,1111122 
SCCF RECON,ioos:station:SCCF:12:1,2010-02-04T19:00:00Z,26.4966,-82.1479,2.14,32.26,1111122 
SCCF RECON,ioos:station:SCCF:12:1,2010-02-04T20:00:00Z,26.4966,-82.1479,2.219,32.25,1111122 
SCCF RECON,ioos:station:SCCF:12:1,2010-02-04T21:00:00Z,26.4966,-82.1479,2.269,32.22,1111122 
SCCF RECON,ioos:station:SCCF:12:1,2010-02-04T22:00:00Z,26.4966,-82.1479,2.301,32.21,1111122 
SCCF RECON,ioos:station:SCCF:12:1,2010-02-04T23:00:00Z,26.4966,-82.1479,2.29,32.26,1111122 
SCCF RECON,ioos:station:SCCF:12:1,2010-02-05T00:00:00Z,26.4966,-82.1479,2.21,32.2,1111122 
SCCF RECON,ioos:station:SCCF:12:1,2010-02-05T01:00:00Z,26.4966,-82.1479,2.091,32.15,1111122 
SCCF RECON,ioos:station:SCCF:12:1,2010-02-05T02:00:00Z,26.4966,-82.1479,1.973,32.14,1111122 
SCCF RECON,ioos:station:SCCF:12:1,2010-02-05T03:00:00Z,26.4966,-82.1479,1.859,32.14,1111122 
SCCF RECON,ioos:station:SCCF:12:1,2010-02-05T04:00:00Z,26.4966,-82.1479,1.751,32.14,1111122 
SCCF RECON,ioos:station:SCCF:12:1,2010-02-05T05:00:00Z,26.4966,-82.1479,1.702,32.12,1111122 
SCCF RECON,ioos:station:SCCF:12:1,2010-02-05T06:00:00Z,26.4966,-82.1479,1.736,32.15,1111122 
SCCF RECON,ioos:station:SCCF:12:1,2010-02-05T07:00:00Z,26.4966,-82.1479,1.853,32.17,1111122 
SCCF RECON,ioos:station:SCCF:12:1,2010-02-05T08:00:00Z,26.4966,-82.1479,1.947,32.07,1111122 
SCCF RECON,ioos:station:SCCF:12:1,2010-02-05T09:00:00Z,26.4966,-82.1479,2.006,32.03,1111122 
SCCF RECON,ioos:station:SCCF:12:1,2010-02-05T10:00:00Z,26.4966,-82.1479,2.066,32.16,1111122 
SCCF RECON,ioos:station:SCCF:12:1,2010-02-05T11:00:00Z,26.4966,-82.1479,2.08,32.13,1111122 
SCCF RECON,ioos:station:SCCF:12:1,2010-02-05T12:00:00Z,26.4966,-82.1479,2.084,32.0,1111122 
SCCF RECON,ioos:station:SCCF:12:1,2010-02-05T13:00:00Z,26.4966,-82.1479,2.099,31.82,1111122 
SCCF RECON,ioos:station:SCCF:12:1,2010-02-05T14:00:00Z,26.4966,-82.1479,2.116,31.91,1111122 
SCCF RECON,ioos:station:SCCF:12:1,2010-02-05T15:00:00Z,26.4966,-82.1479,2.12,31.91,1111122 
SCCF RECON,ioos:station:SCCF:12:1,2010-02-05T16:00:00Z,26.4966,-82.1479,2.107,31.98,1111122 
SCCF RECON,ioos:station:SCCF:12:1,2010-02-05T17:00:00Z,26.4966,-82.1479,2.119,32.05,1111122 
SCCF RECON,ioos:station:SCCF:12:1,2010-02-05T18:00:00Z,26.4966,-82.1479,2.103,32.07,1111122 
SCCF RECON,ioos:station:SCCF:12:1,2010-02-05T19:00:00Z,26.4966,-82.1479,2.142,32.06,1111122 
SCCF RECON,ioos:station:SCCF:12:1,2010-02-05T20:00:00Z,26.4966,-82.1479,2.23,32.04,1111122 
SCCF RECON,ioos:station:SCCF:12:1,2010-02-05T21:00:00Z,26.4966,-82.1479,2.317,32.04,1111122 
SCCF RECON,ioos:station:SCCF:12:1,2010-02-05T22:00:00Z,26.4966,-82.1479,2.46,31.97,1111122 
SCCF RECON,ioos:station:SCCF:12:1,2010-02-05T23:00:00Z,26.4966,-82.1479,2.37,31.96,1111122 
SCCF RECON,ioos:station:SCCF:12:1,2010-02-06T00:00:00Z,26.4966,-82.1479,2.28,32.14,1111122 
SCCF RECON,ioos:station:SCCF:12:1,2010-02-06T01:00:00Z,26.4966,-82.1479,2.19,32.19,1111122 
SCCF RECON,ioos:station:SCCF:12:1,2010-02-06T02:00:00Z,26.4966,-82.1479,2.1,32.2,1111122 
SCCF RECON,ioos:station:SCCF:12:1,2010-02-06T03:00:00Z,26.4966,-82.1479,2.0,32.21,1111122 
SCCF RECON,ioos:station:SCCF:12:1,2010-02-06T04:00:00Z,26.4966,-82.1479,1.919,32.23,1111122 
SCCF RECON,ioos:station:SCCF:12:1,2010-02-06T05:00:00Z,26.4966,-82.1479,1.85,32.21,1111122 
SCCF RECON,ioos:station:SCCF:12:1,2010-02-06T06:00:00Z,26.4966,-82.1479,1.761,32.17,1111122 
SCCF RECON,ioos:station:SCCF:12:1,2010-02-06T07:00:00Z,26.4966,-82.1479,1.71,32.1,1111122 
SCCF RECON,ioos:station:SCCF:12:1,2010-02-06T08:00:00Z,26.4966,-82.1479,1.69,32.03,1111122 
SCCF RECON,ioos:station:SCCF:12:1,2010-02-06T09:00:00Z,26.4966,-82.1479,1.752,31.97,1111122 
SCCF RECON,ioos:station:SCCF:12:1,2010-02-06T10:00:00Z,26.4966,-82.1479,1.85,31.8,1111122 
SCCF RECON,ioos:station:SCCF:12:1,2010-02-06T11:00:00Z,26.4966,-82.1479,1.94,31.99,1111122 
SCCF RECON,ioos:station:SCCF:12:1,2010-02-06T12:00:00Z,26.4966,-82.1479,2.002,31.88,1111122 
SCCF RECON,ioos:station:SCCF:12:1,2010-02-06T13:00:00Z,26.4966,-82.1479,2.03,31.96,1111122 
SCCF RECON,ioos:station:SCCF:12:1,2010-02-06T14:00:00Z,26.4966,-82.1479,2.031,32.06,1111122 
SCCF RECON,ioos:station:SCCF:12:1,2010-02-06T15:00:00Z,26.4966,-82.1479,2.033,32.03,1111122 
SCCF RECON,ioos:station:SCCF:12:1,2010-02-06T16:00:00Z,26.4966,-82.1479,2.039,32.03,1111122 
SCCF RECON,ioos:station:SCCF:12:1,2010-02-06T17:00:00Z,26.4966,-82.1479,2.045,31.99,1111122 
SCCF RECON,ioos:station:SCCF:12:1,2010-02-06T18:00:00Z,26.4966,-82.1479,2.069,31.98,1111122 
SCCF RECON,ioos:station:SCCF:12:1,2010-02-06T19:00:00Z,26.4966,-82.1479,2.082,31.81,1111122 
SCCF RECON,ioos:station:SCCF:12:1,2010-02-06T20:00:00Z,26.4966,-82.1479,2.135,31.86,1111122 
SCCF RECON,ioos:station:SCCF:12:1,2010-02-06T21:00:00Z,26.4966,-82.1479,2.17,31.9,1111122 
SCCF RECON,ioos:station:SCCF:12:1,2010-02-06T22:00:00Z,26.4966,-82.1479,2.211,32.2,1111122 
SCCF RECON,ioos:station:SCCF:12:1,2010-02-06T23:00:00Z,26.4966,-82.1479,2.211,32.63,1111122 
SCCF RECON,ioos:station:SCCF:12:1,2010-02-07T00:00:00Z,26.4966,-82.1479,2.203,32.5,1111122 
SCCF RECON,ioos:station:SCCF:12:1,2010-02-07T01:00:00Z,26.4966,-82.1479,2.176,32.83,1111122 
SCCF RECON,ioos:station:SCCF:12:1,2010-02-07T02:00:00Z,26.4966,-82.1479,2.107,33.49,1111122 
SCCF RECON,ioos:station:SCCF:12:1,2010-02-07T03:00:00Z,26.4966,-82.1479,2.021,33.52,1111122 
SCCF RECON,ioos:station:SCCF:12:1,2010-02-07T04:00:00Z,26.4966,-82.1479,1.938,33.6,1111122 
SCCF RECON,ioos:station:SCCF:12:1,2010-02-07T05:00:00Z,26.4966,-82.1479,1.845,33.61,1111122 
SCCF RECON,ioos:station:SCCF:12:1,2010-02-07T06:00:00Z,26.4966,-82.1479,1.797,33.66,1111122 
SCCF RECON,ioos:station:SCCF:12:1,2010-02-07T07:00:00Z,26.4966,-82.1479,1.711,33.45,1111122 
SCCF RECON,ioos:station:SCCF:12:1,2010-02-07T08:00:00Z,26.4966,-82.1479,1.631,33.55,1111122 
SCCF RECON,ioos:station:SCCF:12:1,2010-02-07T09:00:00Z,26.4966,-82.1479,1.585,33.68,1111122 
SCCF RECON,ioos:station:SCCF:12:1,2010-02-07T10:00:00Z,26.4966,-82.1479,1.591,33.3,1111122 
SCCF RECON,ioos:station:SCCF:12:1,2010-02-07T11:00:00Z,26.4966,-82.1479,1.669,33.34,1111122 
SCCF RECON,ioos:station:SCCF:12:1,2010-02-07T12:00:00Z,26.4966,-82.1479,1.756,33.22,1111122 
SCCF RECON,ioos:station:SCCF:12:1,2010-02-07T13:00:00Z,26.4966,-82.1479,1.804,33.18,1111122 
SCCF RECON,ioos:station:SCCF:12:1,2010-02-07T14:00:00Z,26.4966,-82.1479,1.853,33.12,1111122 
SCCF RECON,ioos:station:SCCF:12:1,2010-02-07T15:00:00Z,26.4966,-82.1479,1.887,33.13,1111122 
SCCF RECON,ioos:station:SCCF:12:1,2010-02-07T16:00:00Z,26.4966,-82.1479,1.92,33.21,1111122 
SCCF RECON,ioos:station:SCCF:12:1,2010-02-07T17:00:00Z,26.4966,-82.1479,1.921,33.32,1111122 
SCCF RECON,ioos:station:SCCF:12:1,2010-02-07T18:00:00Z,26.4966,-82.1479,1.928,33.2,1111122 
SCCF RECON,ioos:station:SCCF:12:1,2010-02-07T19:00:00Z,26.4966,-82.1479,1.934,33.37,1111122 
SCCF RECON,ioos:station:SCCF:12:1,2010-02-07T20:00:00Z,26.4966,-82.1479,1.945,33.41,1111122 
SCCF RECON,ioos:station:SCCF:12:1,2010-02-07T21:00:00Z,26.4966,-82.1479,1.978,33.38,1111122 
SCCF RECON,ioos:station:SCCF:12:1,2010-02-07T22:00:00Z,26.4966,-82.1479,2.033,33.19,1111122 
SCCF RECON,ioos:station:SCCF:12:1,2010-02-07T23:00:00Z,26.4966,-82.1479,2.107,33.45,1111122 
SCCF RECON,ioos:station:SCCF:12:1,2010-02-08T00:00:00Z,26.4966,-82.1479,2.163,33.56,1111122 
SCCF RECON,ioos:station:SCCF:12:1,2010-02-08T01:00:00Z,26.4966,-82.1479,2.196,33.58,1111122 
SCCF RECON,ioos:station:SCCF:12:1,2010-02-08T02:00:00Z,26.4966,-82.1479,2.148,33.69,1111122 
SCCF RECON,ioos:station:SCCF:12:1,2010-02-08T03:00:00Z,26.4966,-82.1479,2.061,33.77,1111122 
SCCF RECON,ioos:station:SCCF:12:1,2010-02-08T04:00:00Z,26.4966,-82.1479,1.988,33.76,1111122 
SCCF RECON,ioos:station:SCCF:12:1,2010-02-08T05:00:00Z,26.4966,-82.1479,1.917,33.78,1111122 
SCCF RECON,ioos:station:SCCF:12:1,2010-02-08T06:00:00Z,26.4966,-82.1479,1.834,33.78,1111122 
SCCF RECON,ioos:station:SCCF:12:1,2010-02-08T07:00:00Z,26.4966,-82.1479,1.74,33.82,1111122 
SCCF RECON,ioos:station:SCCF:12:1,2010-02-08T08:00:00Z,26.4966,-82.1479,1.651,33.77,1111122 
SCCF RECON,ioos:station:SCCF:12:1,2010-02-08T09:00:00Z,26.4966,-82.1479,1.582,33.74,1111122 
SCCF RECON,ioos:station:SCCF:12:1,2010-02-08T10:00:00Z,26.4966,-82.1479,1.574,33.83,1111122 
SCCF RECON,ioos:station:SCCF:12:1,2010-02-08T11:00:00Z,26.4966,-82.1479,1.663,33.78,1111122 
SCCF RECON,ioos:station:SCCF:12:1,2010-02-08T12:00:00Z,26.4966,-82.1479,1.78,33.7,1111122 
SCCF RECON,ioos:station:SCCF:12:1,2010-02-08T13:00:00Z,26.4966,-82.1479,1.856,33.73,1111122 
SCCF RECON,ioos:station:SCCF:12:1,2010-02-08T14:00:00Z,26.4966,-82.1479,1.917,33.73,1111122 
SCCF RECON,ioos:station:SCCF:12:1,2010-02-08T15:00:00Z,26.4966,-82.1479,1.956,33.73,1111122 
SCCF RECON,ioos:station:SCCF:12:1,2010-02-08T16:00:00Z,26.4966,-82.1479,2.01,33.71,1111122 
SCCF RECON,ioos:station:SCCF:12:1,2010-02-08T17:00:00Z,26.4966,-82.1479,2.05,33.52,1111122 
SCCF RECON,ioos:station:SCCF:12:1,2010-02-08T18:00:00Z,26.4966,-82.1479,2.07,33.56,1111122 
SCCF RECON,ioos:station:SCCF:12:1,2010-02-08T19:00:00Z,26.4966,-82.1479,2.052,33.58,1111122 
SCCF RECON,ioos:station:SCCF:12:1,2010-02-08T20:00:00Z,26.4966,-82.1479,2.049,33.51,1111122 
SCCF RECON,ioos:station:SCCF:12:1,2010-02-08T21:00:00Z,26.4966,-82.1479,2.09,33.62,1111122 
SCCF RECON,ioos:station:SCCF:12:1,2010-02-08T22:00:00Z,26.4966,-82.1479,2.15,33.66,1111122 
SCCF RECON,ioos:station:SCCF:12:1,2010-02-08T23:00:00Z,26.4966,-82.1479,2.22,33.6,1111122 
SCCF RECON,ioos:station:SCCF:12:1,2010-02-09T00:00:00Z,26.4966,-82.1479,2.27,33.67,1111122 
SCCF RECON,ioos:station:SCCF:12:1,2010-02-09T01:00:00Z,26.4966,-82.1479,2.28,33.59,1111122 
SCCF RECON,ioos:station:SCCF:12:1,2010-02-09T02:00:00Z,26.4966,-82.1479,2.27,33.64,1111122 
SCCF RECON,ioos:station:SCCF:12:1,2010-02-09T03:00:00Z,26.4966,-82.1479,2.24,33.61,1111122 
SCCF RECON,ioos:station:SCCF:12:1,2010-02-09T04:00:00Z,26.4966,-82.1479,2.19,33.46,1111122 
SCCF RECON,ioos:station:SCCF:12:1,2010-02-09T05:00:00Z,26.4966,-82.1479,2.1,33.24,1111122 
SCCF RECON,ioos:station:SCCF:12:1,2010-02-09T06:00:00Z,26.4966,-82.1479,1.99,33.23,1111122 
SCCF RECON,ioos:station:SCCF:12:1,2010-02-09T07:00:00Z,26.4966,-82.1479,1.87,33.25,1111122 
SCCF RECON,ioos:station:SCCF:12:1,2010-02-09T08:00:00Z,26.4966,-82.1479,1.746,33.31,1111122 
SCCF RECON,ioos:station:SCCF:12:1,2010-02-09T09:00:00Z,26.4966,-82.1479,1.642,33.29,1111122 
SCCF RECON,ioos:station:SCCF:12:1,2010-02-09T10:00:00Z,26.4966,-82.1479,1.571,33.26,1111122 
SCCF RECON,ioos:station:SCCF:12:1,2010-02-09T11:00:00Z,26.4966,-82.1479,1.575,33.28,1111122 
SCCF RECON,ioos:station:SCCF:12:1,2010-02-09T12:00:00Z,26.4966,-82.1479,1.68,33.31,1111122 
SCCF RECON,ioos:station:SCCF:12:1,2010-02-09T13:00:00Z,26.4966,-82.1479,1.82,33.33,1111122 
SCCF RECON,ioos:station:SCCF:12:1,2010-02-09T14:00:00Z,26.4966,-82.1479,1.917,33.3,1111122 
SCCF RECON,ioos:station:SCCF:12:1,2010-02-09T15:00:00Z,26.4966,-82.1479,1.998,33.23,1111122 
SCCF RECON,ioos:station:SCCF:12:1,2010-02-09T16:00:00Z,26.4966,-82.1479,2.05,33.01,1111122 
SCCF RECON,ioos:station:SCCF:12:1,2010-02-09T17:00:00Z,26.4966,-82.1479,2.092,32.72,1111122 
SCCF RECON,ioos:station:SCCF:12:1,2010-02-09T18:00:00Z,26.4966,-82.1479,2.119,32.25,1111122 
SCCF RECON,ioos:station:SCCF:12:1,2010-02-09T19:00:00Z,26.4966,-82.1479,2.12,32.31,1111122 
SCCF RECON,ioos:station:SCCF:12:1,2010-02-09T20:00:00Z,26.4966,-82.1479,2.103,32.23,1111122 
SCCF RECON,ioos:station:SCCF:12:1,2010-02-09T21:00:00Z,26.4966,-82.1479,2.111,31.91,1111122 
SCCF RECON,ioos:station:SCCF:12:1,2010-02-09T22:00:00Z,26.4966,-82.1479,2.19,31.62,1111122 
SCCF RECON,ioos:station:SCCF:12:1,2010-02-09T23:00:00Z,26.4966,-82.1479,2.247,31.6,1111122 
SCCF RECON,ioos:station:SCCF:12:1,2010-02-10T00:00:00Z,26.4966,-82.1479,2.32,31.63,1111122 
SCCF RECON,ioos:station:SCCF:12:1,2010-02-10T01:00:00Z,26.4966,-82.1479,2.38,31.62,1111122 
SCCF RECON,ioos:station:SCCF:12:1,2010-02-10T02:00:00Z,26.4966,-82.1479,2.43,31.99,1111122 
SCCF RECON,ioos:station:SCCF:12:1,2010-02-10T03:00:00Z,26.4966,-82.1479,2.451,32.14,1111122 
SCCF RECON,ioos:station:SCCF:12:1,2010-02-10T04:00:00Z,26.4966,-82.1479,2.399,32.17,1111122 
SCCF RECON,ioos:station:SCCF:12:1,2010-02-10T05:00:00Z,26.4966,-82.1479,2.29,32.24,1111122 
SCCF RECON,ioos:station:SCCF:12:1,2010-02-10T06:00:00Z,26.4966,-82.1479,2.174,32.22,1111122 
SCCF RECON,ioos:station:SCCF:12:1,2010-02-10T07:00:00Z,26.4966,-82.1479,2.04,32.22,1111122 
SCCF RECON,ioos:station:SCCF:12:1,2010-02-10T08:00:00Z,26.4966,-82.1479,1.926,32.23,1111122 
SCCF RECON,ioos:station:SCCF:12:1,2010-02-10T09:00:00Z,26.4966,-82.1479,1.834,32.45,1111122 
SCCF RECON,ioos:station:SCCF:12:1,2010-02-10T10:00:00Z,26.4966,-82.1479,1.785,32.8,1111122 
SCCF RECON,ioos:station:SCCF:12:1,2010-02-10T11:00:00Z,26.4966,-82.1479,1.727,33.21,1111122 
SCCF RECON,ioos:station:SCCF:12:1,2010-02-10T12:00:00Z,26.4966,-82.1479,1.689,33.31,1111122 
SCCF RECON,ioos:station:SCCF:12:1,2010-02-10T13:00:00Z,26.4966,-82.1479,1.682,33.39,1111122 
SCCF RECON,ioos:station:SCCF:12:1,2010-02-10T14:00:00Z,26.4966,-82.1479,1.713,33.33,1111122 
SCCF RECON,ioos:station:SCCF:12:1,2010-02-10T15:00:00Z,26.4966,-82.1479,1.77,33.49,1111122 
SCCF RECON,ioos:station:SCCF:12:1,2010-02-10T16:00:00Z,26.4966,-82.1479,1.854,33.57,1111122 
SCCF RECON,ioos:station:SCCF:12:1,2010-02-10T17:00:00Z,26.4966,-82.1479,1.929,33.66,1111122 
SCCF RECON,ioos:station:SCCF:12:1,2010-02-10T18:00:00Z,26.4966,-82.1479,1.942,33.7,1111122 
SCCF RECON,ioos:station:SCCF:12:1,2010-02-10T19:00:00Z,26.4966,-82.1479,1.887,33.71,1111122 
SCCF RECON,ioos:station:SCCF:12:1,2010-02-10T20:00:00Z,26.4966,-82.1479,1.829,33.69,1111122 
SCCF RECON,ioos:station:SCCF:12:1,2010-02-10T21:00:00Z,26.4966,-82.1479,1.819,33.8,1111122 
SCCF RECON,ioos:station:SCCF:12:1,2010-02-10T22:00:00Z,26.4966,-82.1479,1.849,33.73,1111122 
SCCF RECON,ioos:station:SCCF:12:1,2010-02-10T23:00:00Z,26.4966,-82.1479,1.909,33.59,1111122 
SCCF RECON,ioos:station:SCCF:12:1,2010-02-11T00:00:00Z,26.4966,-82.1479,1.987,33.53,1111122 
SCCF RECON,ioos:station:SCCF:12:1,2010-02-11T01:00:00Z,26.4966,-82.1479,2.06,33.61,1111122 
SCCF RECON,ioos:station:SCCF:12:1,2010-02-11T02:00:00Z,26.4966,-82.1479,2.147,33.79,1111122 
SCCF RECON,ioos:station:SCCF:12:1,2010-02-11T03:00:00Z,26.4966,-82.1479,2.212,34.05,1111122 
SCCF RECON,ioos:station:SCCF:12:1,2010-02-11T04:00:00Z,26.4966,-82.1479,2.223,34.18,1111122 
SCCF RECON,ioos:station:SCCF:12:1,2010-02-11T05:00:00Z,26.4966,-82.1479,2.153,34.21,1111122 
SCCF RECON,ioos:station:SCCF:12:1,2010-02-11T06:00:00Z,26.4966,-82.1479,2.062,34.16,1111122 
SCCF RECON,ioos:station:SCCF:12:1,2010-02-11T07:00:00Z,26.4966,-82.1479,1.966,34.1,1111122 
SCCF RECON,ioos:station:SCCF:12:1,2010-02-11T08:00:00Z,26.4966,-82.1479,1.858,34.14,1111122 
SCCF RECON,ioos:station:SCCF:12:1,2010-02-11T09:00:00Z,26.4966,-82.1479,1.754,34.13,1111122 
SCCF RECON,ioos:station:SCCF:12:1,2010-02-11T10:00:00Z,26.4966,-82.1479,1.642,34.11,1111122 
SCCF RECON,ioos:station:SCCF:12:1,2010-02-11T11:00:00Z,26.4966,-82.1479,1.534,34.15,1111122 
SCCF RECON,ioos:station:SCCF:12:1,2010-02-11T12:00:00Z,26.4966,-82.1479,1.479,34.18,1111122 
SCCF RECON,ioos:station:SCCF:12:1,2010-02-11T13:00:00Z,26.4966,-82.1479,1.506,34.04,1111122 
SCCF RECON,ioos:station:SCCF:12:1,2010-02-11T14:00:00Z,26.4966,-82.1479,1.642,33.92,1111122 
SCCF RECON,ioos:station:SCCF:12:1,2010-02-11T15:00:00Z,26.4966,-82.1479,1.786,33.86,1111122 
SCCF RECON,ioos:station:SCCF:12:1,2010-02-11T16:00:00Z,26.4966,-82.1479,1.887,33.82,1111122 
SCCF RECON,ioos:station:SCCF:12:1,2010-02-11T17:00:00Z,26.4966,-82.1479,1.961,33.87,1111122 